Other Public Products
Issued by NWS Grand Forks, ND

Home | Current Version | Previous Version | Text Only | Print | Product List | Glossary On
Versions: 1 2 3 4 5 6 7 8 9 10 11 12 13 14 15 16 17 18 19 20 21 22 23 24 25 26 27 28 29 30 31 32 33 34 35 36 37 38 39 40 41 42 43 44 45 46 47 48 49 50
000
FPUS83 KFGF 040810
OPUFGF
PRAIRIE TO PINES WEATHER ROUNDUP
NATIONAL WEATHER SERVICE EASTERN NORTH DAKOTA/GRAND FORKS ND
300 AM CDT SAT JUL 04 2015

 **SATELLITE DATA USED TO AUGMENT SKY COVER AT AUTOMATED STATIONS**
 *****  WEATHER ACROSS EASTERN NORTH DAKOTA  *****

CITY           SKY/WX    TMP DP  RH WIND       PRES   REMARKS
GRAND FORKS    MOCLDY    60  58  92 CALM      29.88F FOG
GRAND FORKS AF CLEAR     60  59  96 S3        29.89S
GRAND CITY NWS   N/A     63 N/A N/A SE3         N/A
BUXTON         NOT AVBL
DEVILS LAKE    CLEAR     66  59  77 SE8       29.87F
FARGO          CLEAR     64  60  87 S3        29.91R FOG
WAHPETON ARPT    N/A     61  59  94 E3        29.93R
$$

 *****  WEATHER ACROSS CENTRAL AND WESTERN NORTH DAKOTA  *****

CITY           SKY/WX    TMP DP  RH WIND       PRES   REMARKS
JAMESTOWN      CLOUDY    66  63  90 S6        29.90F FOG
BISMARCK       CLOUDY    65  63  93 E3        29.87F FOG
MINOT          CLEAR     64  61  90 CALM      29.83F FOG
MINOT AFB      CLEAR     64  64 100 S6        29.82F
GARRISON         N/A     66  63  90 SE3       29.86F
WILLISTON      PTCLDY    72  63  73 SW5       29.81F HAZE
DICKINSON      CLEAR     64  61  90 S8        29.85F FOG
HETTINGER      CLEAR     63  59  87 SE6       29.90F FOG
$$

 *****  OTHER OBSERVATIONS NORTHEAST NORTH DAKOTA  *****

CITY           SKY/WX    TMP DP  RH WIND       PRES   REMARKS
WALHALLA       FAIR      64  64 100 MISG      29.87S FOG
LANGDON        FAIR      61  59  94 S9        29.90S FOG
CAVALIER       FAIR      61  59  94 S5        29.87F FOG
GRAFTON        FAIR      59  59 100 S7        29.89S FOG
CANDO          FAIR      61  59  94 SE8       29.88S FOG
FORT TOTTEN    NOT AVBL
ROLLA          CLOUDY    63  63 100 S8        29.88S
RUGBY          NOT AVBL
 ***** THE ABOVE OBSERVATIONS ARE NON NWS ARE NOT QUALITY
        CONTROLLED AND MAY MIS-REPORT RAIN FOR SNOW...
$$

 *****  OTHER OBSERVATIONS SOUTHEAST NORTH DAKOTA *****

CITY           SKY/WX    TMP DP  RH WIND       PRES   REMARKS
COOPERSTOWN    NOT AVBL
VALLEY CITY    FAIR      63  63 100 S6        29.91F FOG
OAKES            N/A     63  63 100 SE8       29.92S FOG
GWINNER          N/A     66  66 100 S3        29.92S
SHEYENNE NWR     N/A     62  62  98 CALM      29.95S
BUFFALO        NOT AVBL
WYNDMERE       NOT AVBL
 ***** THE ABOVE OBSERVATIONS ARE NON NWS ARE NOT QUALITY
       CONTROLLED AND MAY MIS-REPORT RAIN FOR SNOW...
$$

  *****  WEATHER ACROSS NORTHERN MINNESOTA  *****

CITY           SKY/WX    TMP DP  RH WIND       PRES   REMARKS
FLAG ISLAND    CLEAR     66  57  72 CALM      29.89S
WARROAD        CLEAR     61  57  88 CALM      29.91F
ROSEAU         CLEAR     59  54  82 S5        29.90F
HALLOCK        CLEAR     59  57  94 SE7       29.88S FOG
THF RVR FALLS  MOCLDY    61  61 100 SE5       29.92S VSB 1/2
HALSTAD        NOT AVBL
FOSSTON          N/A     55  50  82 CALM      29.94S HAZE
BAUDETTE       CLEAR     58  52  80 S5        29.92S
WASKISH        CLEAR     55  54  94 CALM      29.94S FOG
CROOKSTON      CLEAR     61  57  88 SE5       29.91S FOG
$$
  *****  WEATHER ACROSS CENTRAL AND WEST MINNESOTA  *****

CITY           SKY/WX    TMP DP  RH WIND       PRES   REMARKS
BEMIDJI        FOG       55  54  97 CALM      29.94S VSB 1/2
PARK RAPIDS    CLOUDY    58  55  90 W3        29.95R FOG
WADENA         MOCLDY    57  55  94 CALM      29.95R FOG
DETROIT LAKES  CLEAR     63  59  88 CALM      29.95S FOG
MOORHEAD       CLEAR     63  61  94 SE3       29.92S FOG
FERGUS FALLS   CLEAR     66  64  94 E3        29.93R FOG
ELBOW LAKE     FAIR      67  63  85 E6        29.93S FOG
MORRIS MN      FOG       63  61  94 SE3       29.93R VSB 1
STAPLES        CLOUDY    59  57  94 CALM      29.95R FOG
WHEATON        CLEAR     59  57  94 CALM      29.94R FOG
$$
  *****  WEATHER ELSEWHERE ACROSS MINNESOTA  *****

CITY           SKY/WX    TMP DP  RH WIND       PRES   REMARKS
DULUTH         CLEAR     61  53  75 NE5       29.94R
INTRNTL FALLS  CLEAR     49  48  97 CALM      29.94S
ELY            CLEAR     48  46  93 CALM      29.96R
CLOQUET        CLEAR     54  52  94 CALM      29.94R FOG
BRAINERD       PTCLDY    54  54 100 CALM      29.94S FOG
HIBBING        CLEAR     50  49  96 NW3       29.95R
ALEXANDRIA     CLOUDY    64  61  90 SE3       29.96R FOG
SAINT CLOUD    FOG       60  60 100 CALM      29.93R VSB 1/4
MINNEAPOLIS    MOCLDY    69  60  73 SW3       29.93R
$$

  *****  WEATHER ACROSS SOUTH DAKOTA  *****

CITY           SKY/WX    TMP DP  RH WIND       PRES   REMARKS
SIOUX FALLS    CLEAR     67  60  78 CALM      29.97S
BROOKINGS      CLEAR     64  61  88 S5        29.98F
WATERTOWN      CLEAR     65  62  90 S5        29.95S FOG
HURON          CLEAR     66  63  90 S7        29.93S
SISSETON         N/A     62  60  93 S3        29.91S
ABERDEEN       CLOUDY    63  61  93 S6        29.92S FOG
MITCHELL       CLEAR     68  64  87 S6        29.95S
PIERRE         CLEAR     65  62  90 SE7       29.90F
MOBRIDGE       CLEAR     68  67  96 SE6       29.88F FOG
RAPID CITY     MOCLDY    63  60  90 SE5       29.93F
$$

  *****  SOME WEATHER IN NEARBY STATES *****

CITY           SKY/WX    TMP DP  RH WIND       PRES   REMARKS
GLASGOW MT     CLEAR     65  55  70 E12       29.75F
GREAT FALLS MT CLEAR     65  45  48 SW9       29.83F
CHEYENNE WY    PTCLDY    64  54  69 W3        30.09F
SCOTTSBLUFF NE MOCLDY    70  58  65 SE5       30.01R
OMAHA NE       CLEAR     62  56  80 CALM      29.99S
DES MOINES IA  PTCLDY    64  56  75 CALM      29.98S
DAVENPORT IA   CLEAR     56  54  93 CALM      29.98S
CHICAGO IL     CLEAR     61  55  81 CALM      29.95S
EAU CLAIRE WI  CLEAR     63  56  78 SW3       29.91S
LA CROSSE WI   MOCLDY    64  61  90 S7        29.94R
$$

  *****  SOME NATIONAL WEATHER *****

CITY           SKY/WX    TMP DP  RH WIND       PRES   REMARKS
LA GUARDIA NY  CLOUDY    71  56  58 S5        29.96S
RALEIGH NC     PTCLDY    71  69  93 SW6       29.91S
ATLANTA GA     RAIN      69  67  93 SW10      30.06R
NEW ORLEANS LA PTCLDY    79  73  82 S6        30.02F
OKLAHOMA CITY  PTCLDY    73  70  90 SE6       29.96S
ALBUQUERQUE NM CLOUDY    75  53  46 CALM      30.15R
SALT LAKE CITY MOCLDY    80  51  36 S5        29.90F
LOS ANGELES CA CLOUDY    62  59  90 W8        29.89F
BOISE ID       MOCLDY    79  40  24 SE5       29.82S
SEATTLE WA     CLEAR     69  55  60 S3        29.89S
$$

*** WEATHER ACROSS MANITOBA...SASKATCHEWAN AND ONTARIO ***
                ***ONTARIO***

CITY           SKY/WX    TMP DP  RH WIND       PRES   REMARKS
GERALDTON      CLEAR     50  48  93 NW3       29.92R
THUNDER BAY    CLEAR     50  50 100 W5        29.93S
SIOUX LOOKOUT  CLEAR     50  48  93 CALM      29.94R
TORONTO        CLEAR     57  46  67 N3        29.92S
BIG TROUT LK   CLEAR     55  48  76 SE8       29.90S
PICKLE LAKE    NOT AVBL
DRYDEN         CLEAR     61  55  82 S7        29.93S
KENORA         CLEAR     63  59  88 S6        29.92S
$$
                *** MANITOBA***

CITY           SKY/WX    TMP DP  RH WIND       PRES   REMARKS
BRANDON        CLEAR     59  55  88 SE2       29.82F SMOKE
DAUPHIN        CLEAR     70  61  73 SW12G17   29.76F HAZE
ISLAND LAKE    CLOUDY    66  50  55 S12G20    29.78F
PILOT MOUND      N/A     61  57  88 S9          N/A
THE PAS        CLOUDY    64  61  88 VRB2      29.64F SMOKE
THOMPSON       CLOUDY    61  59  94 S5        29.60F
WINNIPEG       CLEAR     64  59  82 S8        29.85F
LYNN LAKE      CLOUDY    63  57  82 SW9       29.54F HAZE
CHURCHILL      LGT RAIN  45  43  93 E23G30    29.79F
GILLAM         TSTM      59  55  88 E6        29.69F
$$
                ***SASKATCHEWAN***

CITY           SKY/WX    TMP DP  RH WIND       PRES   REMARKS
ESTEVAN        CLEAR     66  64  94 S8        29.80F SMOKE
KINDERSLEY     LGT RAIN  64  61  88 N13G18    29.80R
LLOYDMINSTER   CLOUDY    64  46  52 NW7       29.81S
PRINCE ALBERT  MOCLDY    59  55  88 W6        29.71F
REGINA         LGT RAIN  66  63  88 NW16G31   29.80R



USA.gov is the U.S. government's official web portal to all federal, state and local government web resources and services.